Time,TemperatureF,DewpointF,PressureIn,WindDirection,WindDirectionDegrees,WindSpeedMPH,WindSpeedGustMPH,Humidity,HourlyPrecipIn,Conditions,Clouds,dailyrainin,SoftwareType,DateUTC
2013-10-22 00:09:00,55.0,49.0,29.98,SSW,211,0.0,1.0,80,0.00,,,0.00,weatherlink.com 1.10,2013-10-22 04:09:00,
2013-10-22 00:24:00,54.8,49.0,29.98,SSW,211,0.0,1.0,81,0.00,,,0.00,weatherlink.com 1.10,2013-10-22 04:24:00,
2013-10-22 00:39:00,55.2,50.0,29.98,SSW,196,0.0,2.0,82,0.00,,,0.00,weatherlink.com 1.10,2013-10-22 04:39:00,
2013-10-22 00:54:00,55.2,50.0,29.98,SW,230,0.0,1.0,83,0.00,,,0.00,weatherlink.com 1.10,2013-10-22 04:54:00,
2013-10-22 01:09:00,55.7,51.0,29.97,SSW,201,1.0,2.0,84,0.00,,,0.00,weatherlink.com 1.10,2013-10-22 05:09:00,
2013-10-22 01:24:00,56.2,51.0,29.96,South,191,0.0,2.0,83,0.00,,,0.00,weatherlink.com 1.10,2013-10-22 05:24:00,
2013-10-22 01:39:00,56.2,52.0,29.96,SSE,150,0.0,1.0,86,0.00,,,0.00,weatherlink.com 1.10,2013-10-22 05:39:00,
2013-10-22 01:54:00,56.4,53.0,29.96,SSE,149,1.0,2.0,88,0.00,,,0.00,weatherlink.com 1.10,2013-10-22 05:54:00,
2013-10-22 02:09:00,56.3,53.0,29.95,South,172,1.0,2.0,88,0.00,,,0.00,weatherlink.com 1.10,2013-10-22 06:09:00,
2013-10-22 02:24:00,56.8,53.0,29.95,SW,219,1.0,2.0,87,0.00,,,0.00,weatherlink.com 1.10,2013-10-22 06:24:00,
2013-10-22 02:39:00,56.8,53.0,29.95,SSW,198,1.0,3.0,86,0.00,,,0.00,weatherlink.com 1.10,2013-10-22 06:39:00,
2013-10-22 02:54:00,57.0,53.0,29.94,SSW,205,0.0,4.0,87,0.00,,,0.00,weatherlink.com 1.10,2013-10-22 06:54:00,
2013-10-22 03:09:00,-999.0,-99.9,29.94,North,-999,-999.0,-999.0,-999,0.00,,,0.00,weatherlink.com 1.10,2013-10-22 07:09:00,
2013-10-22 03:24:00,-999.0,-99.9,29.93,North,-999,-999.0,-999.0,-999,0.00,,,0.00,weatherlink.com 1.10,2013-10-22 07:24:00,
2013-10-22 03:40:00,-999.0,-99.9,29.93,North,-999,-999.0,-999.0,-999,0.00,,,0.00,weatherlink.com 1.10,2013-10-22 07:40:00,
2013-10-22 03:55:00,-999.0,-99.9,29.92,North,-999,-999.0,-999.0,-999,0.00,,,0.00,weatherlink.com 1.10,2013-10-22 07:55:00,
2013-10-22 04:10:00,-999.0,-99.9,29.91,North,-999,-999.0,-999.0,-999,0.00,,,0.00,weatherlink.com 1.10,2013-10-22 08:10:00,
2013-10-22 04:25:00,-999.0,-99.9,29.91,North,-999,-999.0,-999.0,-999,0.00,,,0.00,weatherlink.com 1.10,2013-10-22 08:25:00,
2013-10-22 04:40:00,-999.0,-99.9,29.90,North,-999,-999.0,-999.0,-999,0.00,,,0.00,weatherlink.com 1.10,2013-10-22 08:40:00,
2013-10-22 04:55:00,-999.0,-99.9,29.91,North,-999,-999.0,-999.0,-999,0.00,,,0.00,weatherlink.com 1.10,2013-10-22 08:55:00,
2013-10-22 05:10:00,-999.0,-99.9,29.90,North,-999,-999.0,-999.0,-999,0.00,,,0.00,weatherlink.com 1.10,2013-10-22 09:10:00,
2013-10-22 05:25:00,-999.0,-99.9,29.90,North,-999,-999.0,-999.0,-999,0.00,,,0.00,weatherlink.com 1.10,2013-10-22 09:25:00,
2013-10-22 05:40:00,-999.0,-99.9,29.89,North,-999,-999.0,-999.0,-999,0.00,,,0.00,weatherlink.com 1.10,2013-10-22 09:40:00,
2013-10-22 05:55:00,-999.0,-99.9,29.89,North,-999,-999.0,-999.0,-999,0.00,,,0.00,weatherlink.com 1.10,2013-10-22 09:55:00,
2013-10-22 06:10:00,-999.0,-99.9,29.88,North,-999,-999.0,-999.0,-999,0.00,,,0.00,weatherlink.com 1.10,2013-10-22 10:10:00,
2013-10-22 06:25:00,-999.0,-99.9,29.87,North,-999,-999.0,-999.0,-999,0.00,,,0.00,weatherlink.com 1.10,2013-10-22 10:25:00,
2013-10-22 06:40:00,-999.0,-99.9,29.88,North,-999,-999.0,-999.0,-999,0.00,,,0.00,weatherlink.com 1.10,2013-10-22 10:40:00,
2013-10-22 06:55:00,-999.0,-99.9,29.87,North,-999,-999.0,-999.0,-999,0.00,,,0.00,weatherlink.com 1.10,2013-10-22 10:55:00,
2013-10-22 07:10:00,-999.0,-99.9,29.87,North,-999,-999.0,-999.0,-999,0.00,,,0.00,weatherlink.com 1.10,2013-10-22 11:10:00,
2013-10-22 07:26:00,-999.0,-99.9,29.87,North,-999,-999.0,-999.0,-999,0.00,,,0.00,weatherlink.com 1.10,2013-10-22 11:26:00,
2013-10-22 07:41:00,-999.0,-99.9,29.87,North,-999,-999.0,-999.0,-999,0.00,,,0.00,weatherlink.com 1.10,2013-10-22 11:41:00,
2013-10-22 07:56:00,56.5,55.0,29.87,SW,217,0.0,1.0,93,0.00,,,0.00,weatherlink.com 1.10,2013-10-22 11:56:00,
2013-10-22 08:11:00,57.8,55.0,29.87,SW,218,0.0,0.0,90,0.00,,,0.00,weatherlink.com 1.10,2013-10-22 12:11:00,
2013-10-22 08:26:00,57.9,55.0,29.87,SW,218,0.0,0.0,90,0.00,,,0.00,weatherlink.com 1.10,2013-10-22 12:26:00,
2013-10-22 08:41:00,59.4,56.0,29.86,SW,218,0.0,0.0,88,0.00,,,0.00,weatherlink.com 1.10,2013-10-22 12:41:00,
2013-10-22 08:56:00,61.2,57.0,29.86,SW,218,0.0,0.0,87,0.00,,,0.00,weatherlink.com 1.10,2013-10-22 12:56:00,
2013-10-22 09:11:00,62.1,56.0,29.85,SSE,153,3.0,6.0,81,0.00,,,0.00,weatherlink.com 1.10,2013-10-22 13:11:00,
2013-10-22 09:26:00,62.8,57.0,29.84,SSW,209,2.0,6.0,80,0.00,,,0.00,weatherlink.com 1.10,2013-10-22 13:26:00,
2013-10-22 09:41:00,63.8,56.0,29.84,SSW,200,3.0,7.0,75,0.00,,,0.00,weatherlink.com 1.10,2013-10-22 13:41:00,
2013-10-22 09:56:00,63.4,56.0,29.84,SE,139,3.0,7.0,77,0.00,,,0.00,weatherlink.com 1.10,2013-10-22 13:56:00,
2013-10-22 10:11:00,63.2,56.0,29.82,SSE,163,5.0,10.0,78,0.00,,,0.00,weatherlink.com 1.10,2013-10-22 14:11:00,
2013-10-22 10:26:00,62.6,56.0,29.82,SSE,147,7.0,11.0,80,0.00,,,0.00,weatherlink.com 1.10,2013-10-22 14:26:00,
2013-10-22 10:41:00,62.4,56.0,29.81,SE,141,6.0,11.0,79,0.00,,,0.00,weatherlink.com 1.10,2013-10-22 14:41:00,
2013-10-22 10:56:00,62.7,56.0,29.80,SSE,153,4.0,9.0,78,0.00,,,0.00,weatherlink.com 1.10,2013-10-22 14:56:00,
2013-10-22 11:11:00,64.7,55.0,29.80,SE,145,3.0,8.0,72,0.00,,,0.00,weatherlink.com 1.10,2013-10-22 15:11:00,
2013-10-22 11:26:00,64.7,56.0,29.80,SW,226,4.0,8.0,73,0.00,,,0.00,weatherlink.com 1.10,2013-10-22 15:26:00,
2013-10-22 11:41:00,64.7,56.0,29.79,SSW,204,1.0,5.0,73,0.00,,,0.00,weatherlink.com 1.10,2013-10-22 15:41:00,
2013-10-22 11:56:00,64.4,57.0,29.79,South,177,1.0,6.0,77,0.00,,,0.00,weatherlink.com 1.10,2013-10-22 15:56:00,
2013-10-22 12:11:00,64.9,56.0,29.78,SE,141,6.0,11.0,73,0.00,,,0.00,weatherlink.com 1.10,2013-10-22 16:11:00,
2013-10-22 12:26:00,65.5,56.0,29.76,SE,132,2.0,8.0,71,0.00,,,0.00,weatherlink.com 1.10,2013-10-22 16:26:00,
2013-10-22 12:41:00,66.2,56.0,29.76,SSE,156,2.0,10.0,69,0.00,,,0.00,weatherlink.com 1.10,2013-10-22 16:41:00,
2013-10-22 12:56:00,65.7,55.0,29.75,SW,215,3.0,9.0,69,0.00,,,0.00,weatherlink.com 1.10,2013-10-22 16:56:00,
2013-10-22 13:11:00,65.9,55.0,29.75,SSW,207,4.0,9.0,69,0.00,,,0.00,weatherlink.com 1.10,2013-10-22 17:11:00,
2013-10-22 13:26:00,65.4,55.0,29.75,SW,215,3.0,7.0,70,0.00,,,0.00,weatherlink.com 1.10,2013-10-22 17:26:00,
2013-10-22 13:41:00,65.0,55.0,29.74,SW,236,3.0,8.0,70,0.00,,,0.00,weatherlink.com 1.10,2013-10-22 17:41:00,
2013-10-22 13:56:00,64.4,55.0,29.74,SSE,164,2.0,7.0,72,0.00,,,0.00,weatherlink.com 1.10,2013-10-22 17:56:00,
2013-10-22 14:12:00,63.0,58.0,29.74,SSW,198,4.0,5.0,83,0.00,,,0.00,weatherlink.com 1.10,2013-10-22 18:12:00,
2013-10-22 14:27:00,62.6,58.0,29.73,SW,222,3.0,7.0,84,0.00,,,0.00,weatherlink.com 1.10,2013-10-22 18:27:00,
2013-10-22 14:42:00,62.9,57.0,29.73,North,1,2.0,7.0,81,0.00,,,0.00,weatherlink.com 1.10,2013-10-22 18:42:00,
2013-10-22 14:57:00,63.1,57.0,29.72,SW,233,4.0,7.0,79,0.00,,,0.00,weatherlink.com 1.10,2013-10-22 18:57:00,
2013-10-22 15:12:00,63.3,57.0,29.71,South,170,3.0,6.0,79,0.00,,,0.00,weatherlink.com 1.10,2013-10-22 19:12:00,
2013-10-22 15:27:00,63.1,56.0,29.71,WSW,238,0.0,9.0,78,0.00,,,0.00,weatherlink.com 1.10,2013-10-22 19:27:00,
2013-10-22 15:42:00,63.5,57.0,29.71,SE,140,0.0,5.0,79,0.00,,,0.00,weatherlink.com 1.10,2013-10-22 19:42:00,
2013-10-22 15:57:00,64.5,57.0,29.70,SW,229,0.0,7.0,76,0.00,,,0.00,weatherlink.com 1.10,2013-10-22 19:57:00,
2013-10-22 16:12:00,64.6,57.0,29.71,South,184,2.0,4.0,75,0.00,,,0.00,weatherlink.com 1.10,2013-10-22 20:12:00,
2013-10-22 16:27:00,64.1,56.0,29.70,WSW,238,1.0,8.0,76,0.00,,,0.00,weatherlink.com 1.10,2013-10-22 20:27:00,
2013-10-22 16:42:00,63.7,56.0,29.70,SW,229,0.0,12.0,77,0.00,,,0.00,weatherlink.com 1.10,2013-10-22 20:42:00,
2013-10-22 16:57:00,62.9,56.0,29.70,West,272,1.0,9.0,79,0.00,,,0.00,weatherlink.com 1.10,2013-10-22 20:57:00,
2013-10-22 17:12:00,61.9,56.0,29.70,North,4,1.0,5.0,82,0.00,,,0.00,weatherlink.com 1.10,2013-10-22 21:12:00,
2013-10-22 17:27:00,61.4,57.0,29.70,SE,144,1.0,5.0,85,0.00,,,0.00,weatherlink.com 1.10,2013-10-22 21:27:00,
2013-10-22 17:42:00,60.9,56.0,29.69,WNW,288,0.0,13.0,83,0.00,,,0.00,weatherlink.com 1.10,2013-10-22 21:42:00,
2013-10-22 17:57:00,60.8,56.0,29.70,SE,124,0.0,6.0,83,0.00,,,0.00,weatherlink.com 1.10,2013-10-22 21:57:00,
2013-10-22 18:12:00,60.7,56.0,29.69,SSW,208,0.0,6.0,84,0.00,,,0.00,weatherlink.com 1.10,2013-10-22 22:12:00,
2013-10-22 18:27:00,60.7,56.0,29.70,SW,225,1.0,7.0,84,0.00,,,0.00,weatherlink.com 1.10,2013-10-22 22:27:00,
2013-10-22 18:42:00,60.6,56.0,29.69,WSW,243,3.0,7.0,85,0.00,,,0.00,weatherlink.com 1.10,2013-10-22 22:42:00,
2013-10-22 18:57:00,60.6,56.0,29.68,West,274,4.0,6.0,85,0.00,,,0.00,weatherlink.com 1.10,2013-10-22 22:57:00,
2013-10-22 19:12:00,60.8,56.0,29.69,SW,235,0.0,7.0,85,0.00,,,0.00,weatherlink.com 1.10,2013-10-22 23:12:00,
2013-10-22 19:27:00,60.8,56.0,29.68,WNW,297,3.0,7.0,85,0.00,,,0.00,weatherlink.com 1.10,2013-10-22 23:27:00,
2013-10-22 19:42:00,60.9,57.0,29.68,WNW,297,0.0,6.0,86,0.00,,,0.00,weatherlink.com 1.10,2013-10-22 23:42:00,
2013-10-22 19:57:00,60.7,57.0,29.69,WNW,283,3.0,9.0,86,0.00,,,0.00,weatherlink.com 1.10,2013-10-22 23:57:00,
2013-10-22 20:12:00,60.3,57.0,29.69,WNW,285,1.0,6.0,87,0.00,,,0.00,weatherlink.com 1.10,2013-10-23 00:12:00,
2013-10-22 20:27:00,59.8,56.0,29.68,North,352,0.0,4.0,88,0.00,,,0.00,weatherlink.com 1.10,2013-10-23 00:27:00,
2013-10-22 20:42:00,59.3,56.0,29.69,WNW,293,0.0,4.0,89,0.00,,,0.00,weatherlink.com 1.10,2013-10-23 00:42:00,
2013-10-22 20:57:00,58.9,56.0,29.70,NW,314,1.0,5.0,90,0.00,,,0.00,weatherlink.com 1.10,2013-10-23 00:57:00,
2013-10-22 21:12:00,58.6,56.0,29.70,WNW,302,1.0,5.0,90,0.00,,,0.00,weatherlink.com 1.10,2013-10-23 01:12:00,
2013-10-22 21:27:00,58.3,56.0,29.70,NNW,329,0.0,4.0,91,0.00,,,0.00,weatherlink.com 1.10,2013-10-23 01:27:00,
2013-10-22 21:42:00,58.1,56.0,29.71,West,280,3.0,5.0,92,0.00,,,0.00,weatherlink.com 1.10,2013-10-23 01:42:00,
2013-10-22 21:57:00,57.9,56.0,29.72,NW,305,3.0,4.0,92,0.00,,,0.00,weatherlink.com 1.10,2013-10-23 01:57:00,
2013-10-22 22:12:00,57.5,55.0,29.72,NW,319,2.0,3.0,91,0.00,,,0.00,weatherlink.com 1.10,2013-10-23 02:12:00,
2013-10-22 22:27:00,57.0,54.0,29.72,NW,308,2.0,4.0,90,0.00,,,0.00,weatherlink.com 1.10,2013-10-23 02:27:00,
2013-10-22 22:42:00,56.4,53.0,29.72,WNW,297,1.0,3.0,89,0.00,,,0.00,weatherlink.com 1.10,2013-10-23 02:42:00,
2013-10-22 22:58:00,56.1,53.0,29.73,WNW,297,4.0,5.0,88,0.00,,,0.00,weatherlink.com 1.10,2013-10-23 02:58:00,
2013-10-22 23:13:00,55.8,51.0,29.73,NW,305,5.0,6.0,85,0.00,,,0.00,weatherlink.com 1.10,2013-10-23 03:13:00,
2013-10-22 23:28:00,56.1,52.0,29.73,NW,319,4.0,11.0,85,0.00,,,0.00,weatherlink.com 1.10,2013-10-23 03:28:00,
2013-10-22 23:43:00,56.5,50.0,29.73,NW,309,6.0,14.0,80,0.00,,,0.00,weatherlink.com 1.10,2013-10-23 03:43:00,
2013-10-22 23:58:00,56.5,48.0,29.73,NW,309,8.0,14.0,74,0.00,,,0.00,weatherlink.com 1.10,2013-10-23 03:58:00,